This demonstration page uses our WeatherBlox Daily Observations layout. Learn more.

36.17497, -115.13722

Hourly Observations for January 24, 2018

Temp ( °F °C ) Dew Point ( °F °C ) Humidity (%) Winds ( mph kmh ) Pressure ( in mb ) Visibility ( mi km ) Precip ( " mm )
12:53 am 00:53 Clear 41 5 27 -2.8 57 57 Calm 30.33 1027 10 16.0934 0 0
1:53 am 01:53 Clear 40 4.4 26 -3.3 58 58 NW 5 7 30.32 1027 10 16.0934 0 0
2:53 am 02:53 Clear 40 4.4 26 -3.3 58 58 NW 5 7 30.32 1027 10 16.0934 0 0
3:53 am 03:53 Clear 39 3.9 26 -3.3 60 60 Calm 30.31 1026 10 16.0934 0 0
4:53 am 04:53 Clear 39 3.9 25 -3.9 57 57 Calm 30.31 1026 10 16.0934 0 0
5:53 am 05:53 Clear 36 2.2 25 -3.9 64 64 NW 5 7 30.32 1027 10 16.0934 0 0
6:53 am 06:53 Sunny 36 2.2 25 -3.9 64 64 Calm 30.32 1027 10 16.0934 0 0
7:53 am 07:53 Sunny 41 5 26 -3.3 55 55 NW 3 6 30.33 1027 10 16.0934 0 0
8:53 am 08:53 Sunny 47 8.3 28 -2.2 48 48 Calm 30.34 1028 10 16.0934 0 0
9:53 am 09:53 Sunny 50 10 24 -4.4 36 36 SSE 6 9 30.35 1028 10 16.0934 0 0
10:53 am 10:53 Sunny 52 11.1 24 -4.4 34 34 SSE 5 7 30.33 1027 10 16.0934 0 0
11:53 am 11:53 Sunny 56 13.3 22 -5.6 27 27 SE 9 15 30.29 1026 10 16.0934 0 0
12:53 pm 12:53 Sunny 56 13.3 21 -6.1 26 26 SSE 5 7 30.24 1024 10 16.0934 0 0
1:53 pm 13:53 Sunny 57 13.9 21 -6.1 25 25 S 6 9 30.2 1023 10 16.0934 0 0
2:53 pm 14:53 Sunny 59 15 19 -7.2 21 21 ESE 3 6 30.17 1022 10 16.0934 0 0
3:53 pm 15:53 Sunny 59 15 16 -8.9 18 18 SE 6 9 30.16 1022 10 16.0934 0 0
4:53 pm 16:53 Sunny 58 14.4 18 -7.8 21 21 Calm 30.16 1021 10 16.0934 0 0
5:53 pm 17:53 Clear 56 13.3 20 -6.7 24 24 S 3 6 30.15 1021 10 16.0934 0 0
6:53 pm 18:53 Clear 54 12.2 21 -6.1 28 28 SSE 3 6 30.14 1021 10 16.0934 0 0
7:53 pm 19:53 Clear 50 10 24 -4.4 36 36 Calm 30.12 1020 10 16.0934 0 0
8:53 pm 20:53 Clear 46 7.8 25 -3.9 44 44 WNW 5 7 30.11 1020 10 16.0934 0 0
9:53 pm 21:53 Clear 45 7.2 25 -3.9 46 46 NNW 3 6 30.1 1019 10 16.0934 0 0
10:53 pm 22:53 Clear 44 6.7 25 -3.9 47 47 Calm 30.08 1019 10 16.0934 0 0
11:53 pm 23:53 Clear 44 6.7 26 -3.3 49 49 WNW 5 7 30.06 1018 10 16.0934 0 0

Powered by AerisWeather